User: anonymous   Login
Location: Nairn
(57.5833°N, 3.8667°W)
Time: 08:46:24
(UTC+00:00)
Language:

Cosmos 2098 Rocket - Orbit

View from above orbital plane
View from above orbital plane
View from above satellite
View from above satellite

Ground track
Ground track

The orbit data is extracted from the following two-line orbital elements,

1 20775U 90078B   20293.88694931 +.00003661 +00000-0 +17652-3 0  9999
2 20775 082.9232 124.0003 0572148 168.9581 192.4825 14.34788661523575
Epoch (UTC): 19 October 2020 21:17:12
Eccentricity: 0.0572148
inclination: 82.9232°
perigee height: 366 km
apogee height: 1185 km
right ascension of ascending node: 124.0003°
argument of perigee: 168.9581°
revolutions per day: 14.34788661
mean anomaly at epoch: 192.4825°
orbit number at epoch: 52357

The dashed part of the orbit path shows where the satellite is in the earth's shadow,  

DLR